Location: Complexul Astronomic Baia Mare
(47.6577°N, 23.5639°E)
Time: 00:02:07
(UTC+02:00)

ISS - Pass Details

Date: 20 March 2017
Orbit: 399 x 409 km, 51.6° (Epoch: 25 March)

Event Time Altitude Azimuth Distance (km) Brightness Sun altitude
Exits shadow 04:54:08 40° 286° (WNW) 617 -3.3 -16.5°
Maximum altitude 04:55:11 78° 206° (SSW) 422 -3.9 -16.3°
Drops below altitude 10° 04:58:28 10° 120° (ESE) 1,471 -0.4 -15.8°
Sets 05:00:33 0° 119° (ESE) 2,329 0.7 -15.5°
